User: anonymous   Login
Location: Fisheating Creek Campgrounds
(26.9333°N, 81.3167°W)
Time: 12:05:12
(UTC-04:00)
Language:

Cosmos 2221 Rocket - Orbit

View from above orbital plane
View from above orbital plane
View from above satellite
View from above satellite

Ground track
Ground track

The orbit data is extracted from the following two-line orbital elements,

1 22237U 92080B   15142.03522947  .00000299  00000-0  37974-4 0  9994
2 22237 082.5115 101.9724 0020376 156.9005 249.4163 14.78135389211583
Epoch (UTC): 22 May 2015 00:50:43
Eccentricity: 0.0020376
inclination: 82.5115°
perigee height: 621 km
apogee height: 649 km
right ascension of ascending node: 101.9724°
argument of perigee: 156.9005°
revolutions per day: 14.78135389
mean anomaly at epoch: 249.4163°
orbit number at epoch: 21158

The dashed part of the orbit path shows where the satellite is in the earth's shadow,  

DLR